Location: Rio Tanui
(39.9167°N, 8.5167°E)
Time: 14:21:02
(UTC+00:00)

Meteor 2-2 Rocket - Pass Details

Date: 24 June 2024
Orbit: 851 x 928 km, 81.3° (Epoch: 18 July)

Event Time Altitude Azimuth Distance (km) Brightness Sun altitude
Rises 01:26:00 0° 359° (N) 3,428 8.4 -21.0°
Reaches altitude 10° 01:28:39 10° 8° (N) 2,487 7.6 -20.8°
Maximum altitude 01:33:46 35° 74° (ENE) 1,354 5.7 -20.3°
Drops below altitude 10° 01:38:52 10° 139° (SE) 2,488 6.5 -19.8°
Enters shadow 01:40:53 - 146° (SSE) 3,201 7.0 -19.6°
